Volver al catálogo

STARLINK-5396

ActivoComunicacionesVLEO
NORAD 54867·PAYLOAD·🇺🇸 United States

Lanzado Dec 28, 2022 desde Cape Canaveral Space Force Station

Loading…

Próximos Pases (próximas 24 horas)

TLE

ActualizadoSource: CelesTrak SupGP

Época: Sep 14, 2026, 22:01 UTC

1 54867C 22177AZ  26257.91784722 -.00010175  00000+0 -36839-3 0  2575
2 54867  43.0002 133.1743 0000966 252.7443 249.3373 15.27597704    10

Sigue STARLINK-5396 en tiempo real con AllMySat

Download on the App Store